Weather History for Mount Holly, NJ

Change the Weather History Date:

Friday, February 1, 2013

  Actual Average (KWRI) Record (KWRI)
Temperature  
Mean Temperature 34 °F -  
Max Temperature 44 °F 39 °F 68 °F (2002)
Min Temperature 23 °F 23 °F 8 °F (2005)
Degree Days  
Heating Degree Days 31    
Moisture  
Dew Point 11 °F    
Average Humidity 51    
Maximum Humidity 86    
Minimum Humidity 32    
Precipitation  
Precipitation 0.00 in - - ()
Sea Level Pressure  
Sea Level Pressure 30.03 in    
Wind  
Wind Speed 9 mph (WNW)    
Max Wind Speed 23 mph    
Max Gust Speed 38 mph    
Visibility 8 miles    
Events Fog , Snow    
Averages and records for this station are not official NWS values.
T = Trace of Precipitation, MM = Missing Value Source: NWS Daily Summary

Daily Weather History Graph

Daily Weather History Graph

Search for Another Location

Airport:

Trip Planner

Search our weather history database for the weather conditions in past years. The results will help you decide how hot, cold, wet, or windy it might be!

Date:

Astronomy

Feb. 01, 2013 Rise Set
Actual Time 7:07 AM EST 5:18 PM EST
Civil Twilight 6:38 AM EST 5:47 PM EST
Nautical Twilight 6:06 AM EST 6:19 PM EST
Astronomical Twilight 5:34 AM EST 6:51 PM EST
Moon 11:23 PM EST (2/1) 9:39 AM EST (2/1)
Length of Visible Light 11h 08m
Length of Day
10h 11m
Waning Gibbous, 70% of the Moon is Illuminated
Feb 1
Waning Gibbous
Feb 3
Last Quarter
Feb 10
New
Feb 17
First Quarter
Feb 25
Full

Hourly Weather History & Observations

Time (EST) Temp. Windchill Dew Point Humidity Pressure Visibility Wind Dir Wind Speed Gust Speed Precip Events Conditions
2:54 AM - - - N/A% 29.87 in 10.0 mi SW 5.8 mph - N/A   Clear
6:54 AM - - - N/A% 29.86 in 10.0 mi WNW 5.8 mph - N/A   Overcast
7:54 AM 44.1 °F 40.1 °F 16.0 °F 32% 29.88 in 10.0 mi WNW 6.9 mph 17.3 mph N/A   Overcast
9:45 AM 42.8 °F 37.5 °F 19.4 °F 39% 29.91 in 2.5 mi West 9.2 mph - N/A   Haze
9:54 AM - - - N/A% 29.91 in 2.5 mi WNW 8.1 mph 19.6 mph N/A   Overcast
10:18 AM 26.6 °F 14.7 °F 21.2 °F 80% 29.93 in 0.8 mi NW 15.0 mph 25.3 mph 0.00 in Snow Light Snow
10:30 AM 24.8 °F 15.3 °F 21.2 °F 86% 29.94 in 0.2 mi WNW 9.2 mph 19.6 mph 0.00 in Fog , Snow Snow
10:36 AM 24.8 °F 15.3 °F 21.2 °F 86% 29.94 in 1.0 mi NW 9.2 mph 16.1 mph 0.00 in Snow Light Snow
10:42 AM 24.8 °F 14.6 °F 19.4 °F 80% 29.94 in 2.0 mi NW 10.4 mph 17.3 mph 0.00 in Snow Light Snow
10:50 AM 26.6 °F 18.2 °F 19.4 °F 74% 29.94 in 6.0 mi WNW 8.1 mph 19.6 mph 0.00 in   Haze
10:54 AM 26.1 °F 17.6 °F 19.0 °F 75% 29.94 in 7.0 mi NW 8.1 mph 18.4 mph 0.00 in   Overcast
11:54 AM 28.9 °F 18.2 °F 12.9 °F 51% 29.95 in 10.0 mi WNW 13.8 mph 25.3 mph N/A   Overcast
12:54 PM 30.0 °F 16.6 °F 7.0 °F 38% 29.97 in 10.0 mi WNW 23.0 mph 38.0 mph N/A   Overcast
1:54 PM 30.0 °F 19.5 °F 6.1 °F 36% 29.99 in 10.0 mi WNW 13.8 mph 27.6 mph N/A   Mostly Cloudy
3:54 PM 28.9 °F 21.1 °F 3.9 °F 35% 30.06 in 10.0 mi WNW 8.1 mph 20.7 mph N/A   Scattered Clouds
4:54 PM 28.0 °F 17.5 °F 3.0 °F 34% 30.10 in 10.0 mi West 12.7 mph 28.8 mph N/A   Mostly Cloudy
5:54 PM 27.0 °F 16.1 °F 3.9 °F 37% 30.14 in 10.0 mi West 12.7 mph 20.7 mph N/A   Clear
6:54 PM 26.1 °F 13.6 °F 3.9 °F 39% 30.18 in 10.0 mi West 16.1 mph 23.0 mph N/A   Clear
7:54 PM 26.1 °F 16.2 °F 3.9 °F 39% 30.22 in 10.0 mi West 10.4 mph - N/A   Clear
8:54 PM 25.0 °F 13.6 °F 3.0 °F 39% 30.24 in 10.0 mi WNW 12.7 mph 21.9 mph N/A   Clear
9:54 PM 24.1 °F 13.7 °F 3.0 °F 40% 30.26 in 10.0 mi West 10.4 mph 19.6 mph N/A   Clear
10:54 PM 24.1 °F 13.1 °F 3.9 °F 42% 30.29 in 10.0 mi West 11.5 mph 23.0 mph N/A   Clear
11:54 PM 23.0 °F 14.7 °F 3.9 °F 44% 30.30 in 10.0 mi West 6.9 mph 18.4 mph N/A   Clear